Главная страница
METAR-TAF:

METAR-TAF

Аэропорты :

Frederick Municipal Airport

Фредерик, Мэриленд, США

широта: 39-25-03N, долгота: 077-22-28W, высота над уровнем моря: 92 м

Текущие метеонаблюдения

Эта сводка был подготовлена 50 минут назад, в 20:47 UTC
Ветер 20 Узел от западно-северо-западный с порывами до 30 Узел
Температура 12°C
Влажность 54%
Давление 1006 hPa
Видимость: 16.1 км
Рассеянная облачность на высоте 4800 фута

METAR: KFDK 172047Z 30020G30KT 10SM BKN048 12/03 A2971

Время: 17:37 (21:37 UTC)


TAF: отсутствует

Метеонаблюдения и прогнозы для более 4000 аэропортов (сводки METAR и TAF).

Имеющиеся станции представлены на карте желтыми и красными точками.

Чтобы увидеть название станции, наведите на нее мышь.

Затем щелкните, чтобы увидеть метеонаблюдения и метеопрогнозы.

Управление картой: чтобы увеличить масштаб, щелкните зеленые кнопки с черным крестиком; чтобы уменьшить масштаб, щелкните зеленую кнопку с тире; для просмотра соседних карт щелкайте зеленые стрелки.


METAR-TAF: